Regional Weather Roundup
Issued by NWS

Home | Current Version | Previous Version | Graphics & Text | Print | Product List | Glossary Off
Versions: 1 2 3 4 5 6 7 8 9 10 11 12 13 14 15 16 17 18 19 20 21 22 23 24 25 26 27 28 29 30 31 32 33 34 35 36 37 38 39 40 41 42 43 44 45 46 47 48 49 50

000
ASUS43 KFSD 141610
RWRSD

WEATHER ROUNDUP FOR SOUTH DAKOTA
NATIONAL WEATHER SERVICE SIOUX FALLS SD
1000 AM CST THU DEC 14 2017

NOTE: "FAIR" INDICATES FEW OR NO CLOUDS BELOW 12,000 FEET WITH NO
SIGNIFICANT WEATHER AND/OR OBSTRUCTIONS TO VISIBILITY.


SDZ001>005-009-010-012>017-141700-
NORTHWEST AND NORTH CENTRAL SOUTH DAKOTA

CITY           SKY/WX    TMP DP  RH WIND       PRES   REMARKS
BUFFALO          N/A     31  28  89 NW28G35   30.10R WCI  17
FAITH            N/A     31  30  96 NW28G36   30.10R WCI  17
MOBRIDGE       CLOUDY    36  29  75 NW16      30.05R
$$

SDZ012>016-024>037-041>051-057-063-072>074-141700-
SOUTHWEST AND SOUTH CENTRAL SOUTH DAKOTA

CITY           SKY/WX    TMP DP  RH WIND       PRES   REMARKS
RAPID CTY ARPT FLURRIES  33  23  66 NW35G47   30.16R WCI  18
PIERRE         CLOUDY    35  33  92 NW16      30.07R WCI  25
CUSTER         PTSUNNY   24  14  65 VRB6G18   30.09R WCI  17
ELLSWORTH AFB  FLURRIES  33  25  73 NW29G43   30.14R WCI  19
PHILIP         FLURRIES  34  34 100 NW22G29   30.13R WCI  22
PINE RIDGE     CLOUDY    34  25  69 N18G24    30.16R WCI  23
SPEARFISH      FLURRIES  28  25  86 W20G28    30.19R WCI  15
WINNER         LGT SNOW  35  33  92 NW18G26   30.07R FOG     WCI  24
$$

SDZ004>011-016>023-039-040-141700-
NORTHEAST SOUTH DAKOTA

CITY           SKY/WX    TMP DP  RH WIND       PRES   REMARKS
ABERDEEN       CLOUDY    31  29  92 NW8       30.03R WCI  23
WATERTOWN      CLOUDY    28  27  96 NW3       30.00R
BROOKINGS      CLOUDY    29  27  92 SW3       30.01R
SISSETON         N/A     23  21  92 SE3       30.03R
$$

SDZ017-020-022-023-036>040-048>070-141700-
SOUTHEAST SOUTH DAKOTA

CITY           SKY/WX    TMP DP  RH WIND       PRES   REMARKS
SIOUX FALLS    CLOUDY    31  27  85 CALM      30.04R
HURON          CLOUDY    32  28  85 NW6       30.05R WCI  26
CHAMBERLAIN    CLOUDY    36  35  98 NW8       30.06R
MITCHELL       LGT SNOW  33  27  78 W7        30.06R WCI  27
YANKTON        CLOUDY    33  26  75 NW9       30.06R WCI  25
$$

ABBREVIATIONS USED IN REMARKS
   TC - TEMPERATURE IN CELSIUS
  WCI - WIND CHILL INDEX
   HX - HEAT INDEX
  VSB - VISIBILITY





USA.gov is the U.S. government's official web portal to all federal, state and local government web resources and services.